Year,Month,Day,Hour,Minute,Value (Times are PST for windgust in km/hr)
2012,01,22,00,00,11.30
2012,01,22,00,01,12.90
2012,01,22,00,02,9.60
2012,01,22,00,03,11.30
2012,01,22,00,04,12.90
2012,01,22,00,05,11.30
2012,01,22,00,06,14.50
2012,01,22,00,07,12.90
2012,01,22,00,08,12.90
2012,01,22,00,09,12.90
2012,01,22,00,10,12.90
2012,01,22,00,11,12.90
2012,01,22,00,12,11.30
2012,01,22,00,13,11.30
2012,01,22,00,14,11.30
2012,01,22,00,15,8.10
2012,01,22,00,16,9.60
2012,01,22,00,17,11.30
2012,01,22,00,18,8.10
2012,01,22,00,19,11.30
2012,01,22,00,20,11.30
2012,01,22,00,21,8.10
2012,01,22,00,22,9.60
2012,01,22,00,23,9.60
2012,01,22,00,24,12.90
2012,01,22,00,25,9.60
2012,01,22,00,26,12.90
2012,01,22,00,27,9.60
2012,01,22,00,28,14.50
2012,01,22,00,29,9.60
2012,01,22,00,30,14.50
2012,01,22,00,31,17.70
2012,01,22,00,32,19.30
2012,01,22,00,33,12.90
2012,01,22,00,34,12.90
2012,01,22,00,35,14.50
2012,01,22,00,36,16.10
2012,01,22,00,37,19.30
2012,01,22,00,38,16.10
2012,01,22,00,39,12.90
2012,01,22,00,40,17.70
2012,01,22,00,41,17.70
2012,01,22,00,42,19.30
2012,01,22,00,43,17.70
2012,01,22,00,44,17.70
2012,01,22,00,45,12.90
2012,01,22,00,46,9.60
2012,01,22,00,47,14.50
2012,01,22,00,48,12.90
2012,01,22,00,49,19.30
2012,01,22,00,50,17.70
2012,01,22,00,51,17.70
2012,01,22,00,52,12.90
2012,01,22,00,53,17.70
2012,01,22,00,54,17.70
2012,01,22,00,55,17.70
2012,01,22,00,56,17.70
2012,01,22,00,57,12.90
2012,01,22,00,58,19.30
2012,01,22,00,59,12.90
2012,01,22,01,00,14.50
2012,01,22,01,01,17.70
2012,01,22,01,02,19.30
2012,01,22,01,03,17.70
2012,01,22,01,04,12.90
2012,01,22,01,05,11.30
2012,01,22,01,06,11.30
2012,01,22,01,07,14.50
2012,01,22,01,08,19.30
2012,01,22,01,09,12.90
2012,01,22,01,10,16.10
2012,01,22,01,11,11.30
2012,01,22,01,12,22.50
2012,01,22,01,13,14.50
2012,01,22,01,14,17.70
2012,01,22,01,15,17.70
2012,01,22,01,16,11.30
2012,01,22,01,17,12.90
2012,01,22,01,18,11.30
2012,01,22,01,19,9.60
2012,01,22,01,20,14.50
2012,01,22,01,21,14.50
2012,01,22,01,22,24.20
2012,01,22,01,23,22.50
2012,01,22,01,24,20.90
2012,01,22,01,25,29.00
2012,01,22,01,26,20.90
2012,01,22,01,27,20.90
2012,01,22,01,28,11.30
2012,01,22,01,29,17.70
2012,01,22,01,30,19.30
2012,01,22,01,31,9.60
2012,01,22,01,32,17.70
2012,01,22,01,33,14.50
2012,01,22,01,34,20.90
2012,01,22,01,35,19.30
2012,01,22,01,36,24.20
2012,01,22,01,37,20.90
2012,01,22,01,38,22.50
2012,01,22,01,39,17.70
2012,01,22,01,40,19.30
2012,01,22,01,41,25.70
2012,01,22,01,42,22.50
2012,01,22,01,43,19.30
2012,01,22,01,44,19.30
2012,01,22,01,45,29.00
2012,01,22,01,46,24.20
2012,01,22,01,47,24.20
2012,01,22,01,48,19.30
2012,01,22,01,49,20.90
2012,01,22,01,50,24.20
2012,01,22,01,51,20.90
2012,01,22,01,52,19.30
2012,01,22,01,53,24.20
2012,01,22,01,54,12.90
2012,01,22,01,55,20.90
2012,01,22,01,56,16.10
2012,01,22,01,57,22.50
2012,01,22,01,58,12.90
2012,01,22,01,59,22.50
2012,01,22,02,00,19.30
2012,01,22,02,01,19.30
2012,01,22,02,02,22.50
2012,01,22,02,03,19.30
2012,01,22,02,04,19.30
2012,01,22,02,05,20.90
2012,01,22,02,06,22.50
2012,01,22,02,07,24.20
2012,01,22,02,08,29.00
2012,01,22,02,09,27.40
2012,01,22,02,10,19.30
2012,01,22,02,11,29.00
2012,01,22,02,12,37.00
2012,01,22,02,13,24.20
2012,01,22,02,14,33.80
2012,01,22,02,15,30.60
2012,01,22,02,16,22.50
2012,01,22,02,17,25.70
2012,01,22,02,18,25.70
2012,01,22,02,19,24.20
2012,01,22,02,20,25.70
2012,01,22,02,21,32.20
2012,01,22,02,22,29.00
2012,01,22,02,23,24.20
2012,01,22,02,24,30.60
2012,01,22,02,25,24.20
2012,01,22,02,26,24.20
2012,01,22,02,27,22.50
2012,01,22,02,28,24.20
2012,01,22,02,29,32.20
2012,01,22,02,30,29.00
2012,01,22,02,31,32.20
2012,01,22,02,32,27.40
2012,01,22,02,33,27.40
2012,01,22,02,34,19.30
2012,01,22,02,35,29.00
2012,01,22,02,36,20.90
2012,01,22,02,37,24.20
2012,01,22,02,38,19.30
2012,01,22,02,39,22.50
2012,01,22,02,40,25.70
2012,01,22,02,41,20.90
2012,01,22,02,42,22.50
2012,01,22,02,43,25.70
2012,01,22,02,44,24.20
2012,01,22,02,45,22.50
2012,01,22,02,46,37.00
2012,01,22,02,47,38.60
2012,01,22,02,48,33.80
2012,01,22,02,49,33.80
2012,01,22,02,50,25.70
2012,01,22,02,51,32.20
2012,01,22,02,52,46.70
2012,01,22,02,53,38.60
2012,01,22,02,54,25.70
2012,01,22,02,55,29.00
2012,01,22,02,56,29.00
2012,01,22,02,57,30.60
2012,01,22,02,58,38.60
2012,01,22,02,59,30.60
2012,01,22,03,00,32.20
2012,01,22,03,01,22.50
2012,01,22,03,02,27.40
2012,01,22,03,03,27.40
2012,01,22,03,04,29.00
2012,01,22,03,05,37.00
2012,01,22,03,06,30.60
2012,01,22,03,07,35.40
2012,01,22,03,08,40.20
2012,01,22,03,09,38.60
2012,01,22,03,10,38.60
2012,01,22,03,11,37.00
2012,01,22,03,12,37.00
2012,01,22,03,13,35.40
2012,01,22,03,14,27.40
2012,01,22,03,15,25.70
2012,01,22,03,16,24.20
2012,01,22,03,17,32.20
2012,01,22,03,18,32.20
2012,01,22,03,19,22.50
2012,01,22,03,20,22.50
2012,01,22,03,21,29.00
2012,01,22,03,22,24.20
2012,01,22,03,23,19.30
2012,01,22,03,24,29.00
2012,01,22,03,25,32.20
2012,01,22,03,26,24.20
2012,01,22,03,27,30.60
2012,01,22,03,28,25.70
2012,01,22,03,29,19.30
2012,01,22,03,30,30.60
2012,01,22,03,31,25.70
2012,01,22,03,32,19.30
2012,01,22,03,33,29.00
2012,01,22,03,34,29.00
2012,01,22,03,35,24.20
2012,01,22,03,36,24.20
2012,01,22,03,37,24.20
2012,01,22,03,38,24.20
2012,01,22,03,39,24.20
2012,01,22,03,40,27.40
2012,01,22,03,41,22.50
2012,01,22,03,42,20.90
2012,01,22,03,43,32.20
2012,01,22,03,44,19.30
2012,01,22,03,45,27.40
2012,01,22,03,46,16.10
2012,01,22,03,47,20.90
2012,01,22,03,48,16.10
2012,01,22,03,49,22.50
2012,01,22,03,50,29.00
2012,01,22,03,51,29.00
2012,01,22,03,52,16.10
2012,01,22,03,53,29.00
2012,01,22,03,54,24.20
2012,01,22,03,55,32.20
2012,01,22,03,56,22.50
2012,01,22,03,57,22.50
2012,01,22,03,58,22.50
2012,01,22,03,59,25.70
2012,01,22,04,00,29.00
2012,01,22,04,01,24.20
2012,01,22,04,02,17.70
2012,01,22,04,03,20.90
2012,01,22,04,04,17.70
2012,01,22,04,05,22.50
2012,01,22,04,06,12.90
2012,01,22,04,07,20.90
2012,01,22,04,08,17.70
2012,01,22,04,09,19.30
2012,01,22,04,10,20.90
2012,01,22,04,11,27.40
2012,01,22,04,12,29.00
2012,01,22,04,13,20.90
2012,01,22,04,14,20.90
2012,01,22,04,15,20.90
2012,01,22,04,16,19.30
2012,01,22,04,17,33.80
2012,01,22,04,18,32.20
2012,01,22,04,19,20.90
2012,01,22,04,20,33.80
2012,01,22,04,21,30.60
2012,01,22,04,22,46.70
2012,01,22,04,23,27.40
2012,01,22,04,24,32.20
2012,01,22,04,25,37.00
2012,01,22,04,26,33.80
2012,01,22,04,27,29.00
2012,01,22,04,28,33.80
2012,01,22,04,29,27.40
2012,01,22,04,30,33.80
2012,01,22,04,31,32.20
2012,01,22,04,32,29.00
2012,01,22,04,33,22.50
2012,01,22,04,34,24.20
2012,01,22,04,35,30.60
2012,01,22,04,36,40.20
2012,01,22,04,37,35.40
2012,01,22,04,38,37.00
2012,01,22,04,39,38.60
2012,01,22,04,40,46.70
2012,01,22,04,41,27.40
2012,01,22,04,42,24.20
2012,01,22,04,43,27.40
2012,01,22,04,44,37.00
2012,01,22,04,45,38.60
2012,01,22,04,46,30.60
2012,01,22,04,47,40.20
2012,01,22,04,48,25.70
2012,01,22,04,49,29.00
2012,01,22,04,50,33.80
2012,01,22,04,51,29.00
2012,01,22,04,52,32.20
2012,01,22,04,53,35.40
2012,01,22,04,54,30.60
2012,01,22,04,55,30.60
2012,01,22,04,56,24.20
2012,01,22,04,57,30.60
2012,01,22,04,58,29.00
2012,01,22,04,59,30.60
2012,01,22,05,00,32.20
2012,01,22,05,01,32.20
2012,01,22,05,02,24.20
2012,01,22,05,03,27.40
2012,01,22,05,04,27.40
2012,01,22,05,05,30.60
2012,01,22,05,06,29.00
2012,01,22,05,07,30.60
2012,01,22,05,08,29.00
2012,01,22,05,09,29.00
2012,01,22,05,10,37.00
2012,01,22,05,11,30.60
2012,01,22,05,12,32.20
2012,01,22,05,13,30.60
2012,01,22,05,14,20.90
2012,01,22,05,15,24.20
2012,01,22,05,16,35.40
2012,01,22,05,17,33.80
2012,01,22,05,18,27.40
2012,01,22,05,19,30.60
2012,01,22,05,20,24.20
2012,01,22,05,21,35.40
2012,01,22,05,22,25.70
2012,01,22,05,23,30.60
2012,01,22,05,24,27.40
2012,01,22,05,25,29.00
2012,01,22,05,26,37.00
2012,01,22,05,27,30.60
2012,01,22,05,28,29.00
2012,01,22,05,29,30.60
2012,01,22,05,30,29.00
2012,01,22,05,31,33.80
2012,01,22,05,32,35.40
2012,01,22,05,33,30.60
2012,01,22,05,34,35.40
2012,01,22,05,35,35.40
2012,01,22,05,36,41.80
2012,01,22,05,37,45.10
2012,01,22,05,38,32.20
2012,01,22,05,39,30.60
2012,01,22,05,40,32.20
2012,01,22,05,41,40.20
2012,01,22,05,42,49.90
2012,01,22,05,43,48.30
2012,01,22,05,44,32.20
2012,01,22,05,45,46.70
2012,01,22,05,46,33.80
2012,01,22,05,47,29.00
2012,01,22,05,48,30.60
2012,01,22,05,49,32.20
2012,01,22,05,50,32.20
2012,01,22,05,51,27.40
2012,01,22,05,52,37.00
2012,01,22,05,53,37.00
2012,01,22,05,54,41.80
2012,01,22,05,55,45.10
2012,01,22,05,56,49.90
2012,01,22,05,57,29.00
2012,01,22,05,58,38.60
2012,01,22,05,59,30.60
2012,01,22,06,00,32.20
2012,01,22,06,01,37.00
2012,01,22,06,02,29.00
2012,01,22,06,03,29.00
2012,01,22,06,04,37.00
2012,01,22,06,05,35.40
2012,01,22,06,06,35.40
2012,01,22,06,07,35.40
2012,01,22,06,08,32.20
2012,01,22,06,09,29.00
2012,01,22,06,10,37.00
2012,01,22,06,11,33.80
2012,01,22,06,12,35.40
2012,01,22,06,13,30.60
2012,01,22,06,14,24.20
2012,01,22,06,15,27.40
2012,01,22,06,16,30.60
2012,01,22,06,17,40.20
2012,01,22,06,18,33.80
2012,01,22,06,19,33.80
2012,01,22,06,20,32.20
2012,01,22,06,21,32.20
2012,01,22,06,22,41.80
2012,01,22,06,23,40.20
2012,01,22,06,24,35.40
2012,01,22,06,25,33.80
2012,01,22,06,26,30.60
2012,01,22,06,27,24.20
2012,01,22,06,28,29.00
2012,01,22,06,29,30.60
2012,01,22,06,30,53.10
2012,01,22,06,31,38.60
2012,01,22,06,32,41.80
2012,01,22,06,33,38.60
2012,01,22,06,34,33.80
2012,01,22,06,35,45.10
2012,01,22,06,36,37.00
2012,01,22,06,37,29.00
2012,01,22,06,38,37.00
2012,01,22,06,39,38.60
2012,01,22,06,40,45.10
2012,01,22,06,41,32.20
2012,01,22,06,42,37.00
2012,01,22,06,43,40.20
2012,01,22,06,44,38.60
2012,01,22,06,45,43.50
2012,01,22,06,46,35.40
2012,01,22,06,47,33.80
2012,01,22,06,48,43.50
2012,01,22,06,49,41.80
2012,01,22,06,50,22.50
2012,01,22,06,51,38.60
2012,01,22,06,52,32.20
2012,01,22,06,53,37.00
2012,01,22,06,54,40.20
2012,01,22,06,55,37.00
2012,01,22,06,56,40.20
2012,01,22,06,57,35.40
2012,01,22,06,58,33.80
2012,01,22,06,59,29.00
2012,01,22,07,00,43.50
2012,01,22,07,01,37.00
2012,01,22,07,02,38.60
2012,01,22,07,03,38.60
2012,01,22,07,04,35.40
2012,01,22,07,05,38.60
2012,01,22,07,06,24.20
2012,01,22,07,07,38.60
2012,01,22,07,08,30.60
2012,01,22,07,09,35.40
2012,01,22,07,10,35.40
2012,01,22,07,11,37.00
2012,01,22,07,12,38.60
2012,01,22,07,13,43.50
2012,01,22,07,14,49.90
2012,01,22,07,15,38.60
2012,01,22,07,16,32.20
2012,01,22,07,17,30.60
2012,01,22,07,18,45.10
2012,01,22,07,19,49.90
2012,01,22,07,20,46.70
2012,01,22,07,21,40.20
2012,01,22,07,22,48.30
2012,01,22,07,23,46.70
2012,01,22,07,24,56.30
2012,01,22,07,25,49.90
2012,01,22,07,26,46.70
2012,01,22,07,27,38.60
2012,01,22,07,28,40.20
2012,01,22,07,29,38.60
2012,01,22,07,30,35.40
2012,01,22,07,31,38.60
2012,01,22,07,32,37.00
2012,01,22,07,33,48.30
2012,01,22,07,34,38.60
2012,01,22,07,35,33.80
2012,01,22,07,36,38.60
2012,01,22,07,37,40.20
2012,01,22,07,38,33.80
2012,01,22,07,39,40.20
2012,01,22,07,40,35.40
2012,01,22,07,41,41.80
2012,01,22,07,42,37.00
2012,01,22,07,43,32.20
2012,01,22,07,44,35.40
2012,01,22,07,45,33.80
2012,01,22,07,46,38.60
2012,01,22,07,47,51.50
2012,01,22,07,48,40.20
2012,01,22,07,49,33.80
2012,01,22,07,50,37.00
2012,01,22,07,51,29.00
2012,01,22,07,52,30.60
2012,01,22,07,53,37.00
2012,01,22,07,54,33.80
2012,01,22,07,55,32.20
2012,01,22,07,56,33.80
2012,01,22,07,57,24.20
2012,01,22,07,58,33.80
2012,01,22,07,59,25.70
2012,01,22,08,00,27.40
2012,01,22,08,01,35.40
2012,01,22,08,02,30.60
2012,01,22,08,03,30.60
2012,01,22,08,04,41.80
2012,01,22,08,05,32.20
2012,01,22,08,06,32.20
2012,01,22,08,07,40.20
2012,01,22,08,08,32.20
2012,01,22,08,09,35.40
2012,01,22,08,10,38.60
2012,01,22,08,11,32.20
2012,01,22,08,12,35.40
2012,01,22,08,13,27.40
2012,01,22,08,14,25.70
2012,01,22,08,15,32.20
2012,01,22,08,16,30.60
2012,01,22,08,17,27.40
2012,01,22,08,18,40.20
2012,01,22,08,19,38.60
2012,01,22,08,20,40.20
2012,01,22,08,21,48.30
2012,01,22,08,22,32.20
2012,01,22,08,23,33.80
2012,01,22,08,24,35.40
2012,01,22,08,25,35.40
2012,01,22,08,26,38.60
2012,01,22,08,27,30.60
2012,01,22,08,28,30.60
2012,01,22,08,29,37.00
2012,01,22,08,30,46.70
2012,01,22,08,31,29.00
2012,01,22,08,32,33.80
2012,01,22,08,33,33.80
2012,01,22,08,34,33.80
2012,01,22,08,35,33.80
2012,01,22,08,36,32.20
2012,01,22,08,37,33.80
2012,01,22,08,38,35.40
2012,01,22,08,39,24.20
2012,01,22,08,40,40.20
2012,01,22,08,41,32.20
2012,01,22,08,42,33.80
2012,01,22,08,43,37.00
2012,01,22,08,44,38.60
2012,01,22,08,45,35.40
2012,01,22,08,46,49.90
2012,01,22,08,47,33.80
2012,01,22,08,48,30.60
2012,01,22,08,49,35.40
2012,01,22,08,50,38.60
2012,01,22,08,51,40.20
2012,01,22,08,52,33.80
2012,01,22,08,53,32.20
2012,01,22,08,54,24.20
2012,01,22,08,55,46.70
2012,01,22,08,56,29.00
2012,01,22,08,57,38.60
2012,01,22,08,58,38.60
2012,01,22,08,59,37.00
2012,01,22,09,00,37.00
2012,01,22,09,01,29.00
2012,01,22,09,02,43.50
2012,01,22,09,03,30.60
2012,01,22,09,04,27.40
2012,01,22,09,05,37.00
2012,01,22,09,06,25.70
2012,01,22,09,07,29.00
2012,01,22,09,08,38.60
2012,01,22,09,09,38.60
2012,01,22,09,10,33.80
2012,01,22,09,11,37.00
2012,01,22,09,12,33.80
2012,01,22,09,13,33.80
2012,01,22,09,14,35.40
2012,01,22,09,15,35.40
2012,01,22,09,16,27.40
2012,01,22,09,17,27.40
2012,01,22,09,18,32.20
2012,01,22,09,19,35.40
2012,01,22,09,20,24.20
2012,01,22,09,21,35.40
2012,01,22,09,22,38.60
2012,01,22,09,23,37.00
2012,01,22,09,24,33.80
2012,01,22,09,25,32.20
2012,01,22,09,26,33.80
2012,01,22,09,27,35.40
2012,01,22,09,28,40.20
2012,01,22,09,29,35.40
2012,01,22,09,30,37.00
2012,01,22,09,31,37.00
2012,01,22,09,32,37.00
2012,01,22,09,33,35.40
2012,01,22,09,34,37.00
2012,01,22,09,35,35.40
2012,01,22,09,36,35.40
2012,01,22,09,37,37.00
2012,01,22,09,38,40.20
2012,01,22,09,39,40.20
2012,01,22,09,40,43.50
2012,01,22,09,41,51.50
2012,01,22,09,42,43.50
2012,01,22,09,43,43.50
2012,01,22,09,44,49.90
2012,01,22,09,45,33.80
2012,01,22,09,46,38.60
2012,01,22,09,47,33.80
2012,01,22,09,48,24.20
2012,01,22,09,49,33.80
2012,01,22,09,50,30.60
2012,01,22,09,51,45.10
2012,01,22,09,52,37.00
2012,01,22,09,53,41.80
2012,01,22,09,54,33.80
2012,01,22,09,55,35.40
2012,01,22,09,56,38.60
2012,01,22,09,57,25.70
2012,01,22,09,58,32.20
2012,01,22,09,59,29.00
2012,01,22,10,00,38.60
2012,01,22,10,01,37.00
2012,01,22,10,02,30.60
2012,01,22,10,03,35.40
2012,01,22,10,04,30.60
2012,01,22,10,05,41.80
2012,01,22,10,06,35.40
2012,01,22,10,07,43.50
2012,01,22,10,08,41.80
2012,01,22,10,09,30.60
2012,01,22,10,10,37.00
2012,01,22,10,11,38.60
2012,01,22,10,12,45.10
2012,01,22,10,13,35.40
2012,01,22,10,14,41.80
2012,01,22,10,15,32.20
2012,01,22,10,16,41.80
2012,01,22,10,17,40.20
2012,01,22,10,18,40.20
2012,01,22,10,19,37.00
2012,01,22,10,20,37.00
2012,01,22,10,21,40.20
2012,01,22,10,22,37.00
2012,01,22,10,23,35.40
2012,01,22,10,24,29.00
2012,01,22,10,25,35.40
2012,01,22,10,26,33.80
2012,01,22,10,27,32.20
2012,01,22,10,28,38.60
2012,01,22,10,29,29.00
2012,01,22,10,30,30.60
2012,01,22,10,31,32.20
2012,01,22,10,32,49.90
2012,01,22,10,33,48.30
2012,01,22,10,34,35.40
2012,01,22,10,35,30.60
2012,01,22,10,36,33.80
2012,01,22,10,37,24.20
2012,01,22,10,38,38.60
2012,01,22,10,39,32.20
2012,01,22,10,40,45.10
2012,01,22,10,41,35.40
2012,01,22,10,42,30.60
2012,01,22,10,43,32.20
2012,01,22,10,44,27.40
2012,01,22,10,45,37.00
2012,01,22,10,46,30.60
2012,01,22,10,47,37.00
2012,01,22,10,48,41.80
2012,01,22,10,49,38.60
2012,01,22,10,50,33.80
2012,01,22,10,51,35.40
2012,01,22,10,52,38.60
2012,01,22,10,53,45.10
2012,01,22,10,54,43.50
2012,01,22,10,55,33.80
2012,01,22,10,56,37.00
2012,01,22,10,57,30.60
2012,01,22,10,58,38.60
2012,01,22,10,59,37.00
2012,01,22,11,00,35.40
2012,01,22,11,01,51.50
2012,01,22,11,02,43.50
2012,01,22,11,03,43.50
2012,01,22,11,04,33.80
2012,01,22,11,05,27.40
2012,01,22,11,06,35.40
2012,01,22,11,07,30.60
2012,01,22,11,08,32.20
2012,01,22,11,09,37.00
2012,01,22,11,10,33.80
2012,01,22,11,11,37.00
2012,01,22,11,12,38.60
2012,01,22,11,13,33.80
2012,01,22,11,14,38.60
2012,01,22,11,15,46.70
2012,01,22,11,16,35.40
2012,01,22,11,17,35.40
2012,01,22,11,18,30.60
2012,01,22,11,19,37.00
2012,01,22,11,20,33.80
2012,01,22,11,21,45.10
2012,01,22,11,22,32.20
2012,01,22,11,23,46.70
2012,01,22,11,24,38.60
2012,01,22,11,25,35.40
2012,01,22,11,26,46.70
2012,01,22,11,27,37.00
2012,01,22,11,28,35.40
2012,01,22,11,29,37.00
2012,01,22,11,30,40.20
2012,01,22,11,31,33.80
2012,01,22,11,32,37.00
2012,01,22,11,33,37.00
2012,01,22,11,34,35.40
2012,01,22,11,35,32.20
2012,01,22,11,36,40.20
2012,01,22,11,37,32.20
2012,01,22,11,38,38.60
2012,01,22,11,39,37.00
2012,01,22,11,40,48.30
2012,01,22,11,41,37.00
2012,01,22,11,42,41.80
2012,01,22,11,43,29.00
2012,01,22,11,44,30.60
2012,01,22,11,45,29.00
2012,01,22,11,46,38.60
2012,01,22,11,47,30.60
2012,01,22,11,48,27.40
2012,01,22,11,49,30.60
2012,01,22,11,50,41.80
2012,01,22,11,51,46.70
2012,01,22,11,52,41.80
2012,01,22,11,53,35.40
2012,01,22,11,54,41.80
2012,01,22,11,55,30.60
2012,01,22,11,56,32.20
2012,01,22,11,57,30.60
2012,01,22,11,58,33.80
2012,01,22,11,59,33.80
2012,01,22,12,00,40.20
2012,01,22,12,01,46.70
2012,01,22,12,02,33.80
2012,01,22,12,03,45.10
2012,01,22,12,04,45.10
2012,01,22,12,05,37.00
2012,01,22,12,06,32.20
2012,01,22,12,07,43.50
2012,01,22,12,08,45.10
2012,01,22,12,09,38.60
2012,01,22,12,10,33.80
2012,01,22,12,11,33.80
2012,01,22,12,12,37.00
2012,01,22,12,13,35.40
2012,01,22,12,14,40.20
2012,01,22,12,15,38.60
2012,01,22,12,16,32.20
2012,01,22,12,17,35.40
2012,01,22,12,18,37.00
2012,01,22,12,19,32.20
2012,01,22,12,20,35.40
2012,01,22,12,21,29.00
2012,01,22,12,22,33.80
2012,01,22,12,23,40.20
2012,01,22,12,24,32.20
2012,01,22,12,25,33.80
2012,01,22,12,26,43.50
2012,01,22,12,27,35.40
2012,01,22,12,28,29.00
2012,01,22,12,29,33.80
2012,01,22,12,30,24.20
2012,01,22,12,31,29.00
2012,01,22,12,32,38.60
2012,01,22,12,33,41.80
2012,01,22,12,34,38.60
2012,01,22,12,35,41.80
2012,01,22,12,36,33.80
2012,01,22,12,37,27.40
2012,01,22,12,38,33.80
2012,01,22,12,39,43.50
2012,01,22,12,40,38.60
2012,01,22,12,41,38.60
2012,01,22,12,42,32.20
2012,01,22,12,43,46.70
2012,01,22,12,44,43.50
2012,01,22,12,45,49.90
2012,01,22,12,46,41.80
2012,01,22,12,47,37.00
2012,01,22,12,48,45.10
2012,01,22,12,49,53.10
2012,01,22,12,50,49.90
2012,01,22,12,51,43.50
2012,01,22,12,52,40.20
2012,01,22,12,53,30.60
2012,01,22,12,54,30.60
2012,01,22,12,55,33.80
2012,01,22,12,56,38.60
2012,01,22,12,57,45.10
2012,01,22,12,58,25.70
2012,01,22,12,59,40.20
2012,01,22,13,00,37.00
2012,01,22,13,01,40.20
2012,01,22,13,02,37.00
2012,01,22,13,03,38.60
2012,01,22,13,04,43.50
2012,01,22,13,05,29.00
2012,01,22,13,06,41.80
2012,01,22,13,07,33.80
2012,01,22,13,08,33.80
2012,01,22,13,09,35.40
2012,01,22,13,10,32.20
2012,01,22,13,11,33.80
2012,01,22,13,12,33.80
2012,01,22,13,13,37.00
2012,01,22,13,14,35.40
2012,01,22,13,15,38.60
2012,01,22,13,16,37.00
2012,01,22,13,17,30.60
2012,01,22,13,18,35.40
2012,01,22,13,19,24.20
2012,01,22,13,20,33.80
2012,01,22,13,21,33.80
2012,01,22,13,22,32.20
2012,01,22,13,23,32.20
2012,01,22,13,24,38.60
2012,01,22,13,25,40.20
2012,01,22,13,26,33.80
2012,01,22,13,27,46.70
2012,01,22,13,28,40.20
2012,01,22,13,29,45.10
2012,01,22,13,30,35.40
2012,01,22,13,31,32.20
2012,01,22,13,32,27.40
2012,01,22,13,33,38.60
2012,01,22,13,34,38.60
2012,01,22,13,35,35.40
2012,01,22,13,36,38.60
2012,01,22,13,37,40.20
2012,01,22,13,38,54.70
2012,01,22,13,39,45.10
2012,01,22,13,40,41.80
2012,01,22,13,41,45.10
2012,01,22,13,42,30.60
2012,01,22,13,43,37.00
2012,01,22,13,44,49.90
2012,01,22,13,45,43.50
2012,01,22,13,46,46.70
2012,01,22,13,47,43.50
2012,01,22,13,48,30.60
2012,01,22,13,49,46.70
2012,01,22,13,50,51.50
2012,01,22,13,51,38.60
2012,01,22,13,52,41.80
2012,01,22,13,53,48.30
2012,01,22,13,54,48.30
2012,01,22,13,55,48.30
2012,01,22,13,56,33.80
2012,01,22,13,57,49.90
2012,01,22,13,58,38.60
2012,01,22,13,59,46.70
2012,01,22,14,00,41.80
2012,01,22,14,01,45.10
2012,01,22,14,02,38.60
2012,01,22,14,03,51.50
2012,01,22,14,04,53.10
2012,01,22,14,05,37.00
2012,01,22,14,06,49.90
2012,01,22,14,07,54.70
2012,01,22,14,08,38.60
2012,01,22,14,09,41.80
2012,01,22,14,10,35.40
2012,01,22,14,11,37.00
2012,01,22,14,12,41.80
2012,01,22,14,13,43.50
2012,01,22,14,14,45.10
2012,01,22,14,15,69.20
2012,01,22,14,16,41.80
2012,01,22,14,17,53.10
2012,01,22,14,18,54.70
2012,01,22,14,19,46.70
2012,01,22,14,20,48.30
2012,01,22,14,21,49.90
2012,01,22,14,22,37.00
2012,01,22,14,23,37.00
2012,01,22,14,24,48.30
2012,01,22,14,25,33.80
2012,01,22,14,26,43.50
2012,01,22,14,27,35.40
2012,01,22,14,28,46.70
2012,01,22,14,29,30.60
2012,01,22,14,30,41.80
2012,01,22,14,31,54.70
2012,01,22,14,32,46.70
2012,01,22,14,33,40.20
2012,01,22,14,34,49.90
2012,01,22,14,35,49.90
2012,01,22,14,36,51.50
2012,01,22,14,37,51.50
2012,01,22,14,38,32.20
2012,01,22,14,39,40.20
2012,01,22,14,40,25.70
2012,01,22,14,41,35.40
2012,01,22,14,42,40.20
2012,01,22,14,43,33.80
2012,01,22,14,44,29.00
2012,01,22,14,45,37.00
2012,01,22,14,46,45.10
2012,01,22,14,47,32.20
2012,01,22,14,48,35.40
2012,01,22,14,49,33.80
2012,01,22,14,50,37.00
2012,01,22,14,51,29.00
2012,01,22,14,52,22.50
2012,01,22,14,53,27.40
2012,01,22,14,54,48.30
2012,01,22,14,55,33.80
2012,01,22,14,56,37.00
2012,01,22,14,57,32.20
2012,01,22,14,58,29.00
2012,01,22,14,59,25.70
2012,01,22,15,00,35.40
2012,01,22,15,01,27.40
2012,01,22,15,02,37.00
2012,01,22,15,03,45.10
2012,01,22,15,04,43.50
2012,01,22,15,05,30.60
2012,01,22,15,06,38.60
2012,01,22,15,07,45.10
2012,01,22,15,08,35.40
2012,01,22,15,09,43.50
2012,01,22,15,10,59.50
2012,01,22,15,11,57.90
2012,01,22,15,12,43.50
2012,01,22,15,13,48.30
2012,01,22,15,14,45.10
2012,01,22,15,15,43.50
2012,01,22,15,16,40.20
2012,01,22,15,17,54.70
2012,01,22,15,18,45.10
2012,01,22,15,19,37.00
2012,01,22,15,20,45.10
2012,01,22,15,21,37.00
2012,01,22,15,22,54.70
2012,01,22,15,23,61.20
2012,01,22,15,24,53.10
2012,01,22,15,25,46.70
2012,01,22,15,26,41.80
2012,01,22,15,27,40.20
2012,01,22,15,28,43.50
2012,01,22,15,29,43.50
2012,01,22,15,30,45.10
2012,01,22,15,31,40.20
2012,01,22,15,32,53.10
2012,01,22,15,33,38.60
2012,01,22,15,34,43.50
2012,01,22,15,35,62.70
2012,01,22,15,36,43.50
2012,01,22,15,37,54.70
2012,01,22,15,38,46.70
2012,01,22,15,39,46.70
2012,01,22,15,40,53.10
2012,01,22,15,41,49.90
2012,01,22,15,42,54.70
2012,01,22,15,43,57.90
2012,01,22,15,44,49.90
2012,01,22,15,45,53.10
2012,01,22,15,46,40.20
2012,01,22,15,47,54.70
2012,01,22,15,48,48.30
2012,01,22,15,49,41.80
2012,01,22,15,50,40.20
2012,01,22,15,51,54.70
2012,01,22,15,52,45.10
2012,01,22,15,53,51.50
2012,01,22,15,54,41.80
2012,01,22,15,55,57.90
2012,01,22,15,56,48.30
2012,01,22,15,57,45.10
2012,01,22,15,58,46.70
2012,01,22,15,59,59.50
2012,01,22,16,00,53.10
2012,01,22,16,01,57.90
2012,01,22,16,02,41.80
2012,01,22,16,03,37.00
2012,01,22,16,04,35.40
2012,01,22,16,05,46.70
2012,01,22,16,06,59.50
2012,01,22,16,07,74.00
2012,01,22,16,08,43.50
2012,01,22,16,09,64.40
2012,01,22,16,10,38.60
2012,01,22,16,11,43.50
2012,01,22,16,12,61.20
2012,01,22,16,13,35.40
2012,01,22,16,14,46.70
2012,01,22,16,18,33.80
2012,01,22,16,19,67.60
2012,01,22,16,20,49.90
2012,01,22,16,21,45.10
2012,01,22,16,22,49.90
2012,01,22,16,23,46.70
2012,01,22,16,24,38.60
2012,01,22,16,25,41.80
2012,01,22,16,26,41.80
2012,01,22,16,27,51.50
2012,01,22,16,28,43.50
2012,01,22,16,29,46.70
2012,01,22,16,30,35.40
2012,01,22,16,31,37.00
2012,01,22,16,32,43.50
2012,01,22,16,33,30.60
2012,01,22,16,34,46.70
2012,01,22,16,35,45.10
2012,01,22,16,36,33.80
2012,01,22,16,37,41.80
2012,01,22,16,38,64.40
2012,01,22,16,39,46.70
2012,01,22,16,40,41.80
2012,01,22,16,41,46.70
2012,01,22,16,42,40.20
2012,01,22,16,43,40.20
2012,01,22,16,44,32.20
2012,01,22,16,45,43.50
2012,01,22,16,46,49.90
2012,01,22,16,47,37.00
2012,01,22,16,48,38.60
2012,01,22,16,49,45.10
2012,01,22,16,50,32.20
2012,01,22,16,51,24.20
2012,01,22,16,52,45.10
2012,01,22,16,53,64.40
2012,01,22,16,54,48.30
2012,01,22,16,55,78.80
2012,01,22,16,56,49.90
2012,01,22,16,57,45.10
2012,01,22,16,58,48.30
2012,01,22,16,59,46.70
2012,01,22,17,00,45.10
2012,01,22,17,01,51.50
2012,01,22,17,02,61.20
2012,01,22,17,03,41.80
2012,01,22,17,04,48.30
2012,01,22,17,05,49.90
2012,01,22,17,06,57.90
2012,01,22,17,07,64.40
2012,01,22,17,08,53.10
2012,01,22,17,09,51.50
2012,01,22,17,10,51.50
2012,01,22,17,11,56.30
2012,01,22,17,12,51.50
2012,01,22,17,17,54.70
2012,01,22,17,18,56.30
2012,01,22,17,19,56.30
2012,01,22,17,20,59.50
2012,01,22,17,21,51.50
2012,01,22,17,22,45.10
2012,01,22,17,23,64.40
2012,01,22,17,24,69.20
2012,01,22,17,25,61.20
2012,01,22,17,26,53.10